Showing default

HULIANWANG DIGUI-07, 62329

Orbit data source: Space-Track

HULIANWANG DIGUI-07, 62329 is a payload satellite owned by Zhongguo Xingwang (CN) in LEO that was launched on Mon, 16 Dec 2024 UTC via a CHANG ZHENG 5B/YZ-2 launch vehicle from the Wenchang Satellite Launch Center (WSC). Payload-class satellites include a variety of spacecraft equipped with specific instruments for various scientific and technological missions. These include communications satellites like Starlink; space stations such as the ISS; scientific satellites like the Hubble; Earth observation satellites from companies like Planet Labs, Umbra, and HawkEye 360; GPS; miniature CubeSats for education and research; and military/defense satellites.

Loading next visibility...
Identifier
62329, 2024-240G
Orbit
LEO
Country
Flag of CNCN / PRC
Related business
Manufacturer
CAST?
Mission
Operational Civil Communications
Bus & Motor
XINGWANG CL, Unknown motor
Mass
~800 kg wet, ~800 kg dry
Launch date (UTC)
2024-12-16 (1 year ago)
Launch vehicle
CHANG ZHENG 5B/YZ-2
Launch site
Wenchang Satellite Launch Center (WSC)
Object type
Payload
Rocket body
Debris
Shape & HBR
Box + 2 Pan, 5.0 m
Radar Cross Section
5.935 m², Large (>1 m²)

Expand to show TLE details & history
Last TLE update: 4 hours ago

TLE from 4 hours ago
0 HULIANWANG DIGUI-07
1 62329U 24240G   26126.47689709  .00000022  00000-0  17075-4 0  9999
2 62329  86.4975 357.0414 0001685  71.5197 288.6120 13.24407331 67128
Epoch: 2026-05-06T11:26Z
TLE epoch observation values (Epoch: 2026-05-06T11:26:43.908Z)
Latitude
-0.00003°
Longitude
-38.97838°
Altitude
1,170.421 km
Speed
7.268 km/s
True Right ascension
23h 48m 09s
True Declination
0° 00' 00"
Sunlit
Object was in daylight at epoch
Visualization orbit readout
Latitude
Unknown
Longitude
Unknown
Altitude
Unknown
Speed
Unknown
Apparent Right ascension
Unknown
Apparent Declination
Unknown
Sunlit
N/A
Visualization observer readout
Local Sidereal Time
23:44:17
Azimuth
Unknown
Elevation
Unknown
Doppler factor
Unknown
Orbital elements
Apogee altitude
1,166.323 km
Perigee altitude
1,163.781 km
Semi-major axis
7,543.189 km
Eccentricity
0.00017
Inclination
86.4975°
RAAN
357.0414°
Arg. of periapsis
71.5197°
True anomaly
288.5937°
Mean anomaly
288.612°
Eccentric anomaly
288.60285°
Mean motion
3.31292 °/min
Orbital period
108.67 mins
BSTAR
0.000017075
Loading maneuver chart data...
Computing Atmospheric mass density...
Loading historical data...
Loading historical data...
Loading historical data...
Loading historical data...
Loading historical data...
Loading historical data...
Loading historical data...

Documentation

Showing up to 5 results
|